GW0206 Weather Reports


time (UTC)temp
F
wind
direction
speed
knots
gust
knots
rain 1hr
in
rain 24hr
in
rain mn
in
humidity
%
barometer
mb
20260508060019 45 102 0.0 3.5 0.00 0.00 0.00 84 1013.3
20260508055505 44 94 1.7 2.6 0.00 0.00 0.00 83 1013.3
20260508055011 44 101 0.0 0.0 0.00 0.00 0.00 81 1013.2
20260508054527 44 101 0.0 0.0 0.00 0.00 0.00 81 1013.2
20260508054007 44 101 0.0 0.0 0.00 0.00 0.00 80 1013.3
20260508053509 45 101 0.0 0.0 0.00 0.00 0.00 79 1013.3
20260508053028 45 101 0.0 0.0 0.00 0.00 0.00 81 1013.4
20260508052511 45 101 0.0 0.0 0.00 0.00 0.00 81 1013.4
20260508052008 45 101 0.0 0.0 0.00 0.00 0.00 81 1013.4
20260508051516 45 101 0.0 0.0 0.00 0.00 0.00 80 1013.4
20260508051005 45 101 0.0 0.0 0.00 0.00 0.00 81 1013.4
20260508050505 46 101 0.0 0.0 0.00 0.00 0.00 78 1013.2
20260508050027 46 101 0.0 1.7 0.00 0.00 0.00 78 1013.3
20260508045512 46 101 0.0 2.6 0.00 0.00 0.00 77 1013.3
20260508045008 46 101 0.0 3.5 0.00 0.00 0.00 77 1013.3
20260508044523 46 113 1.7 5.2 0.00 0.00 0.00 76 1013.3
20260508044008 47 105 1.7 7.0 0.00 0.00 0.00 74 1013.3
20260508043514 47 29 0.9 7.0 0.00 0.00 0.00 73 1013.4
20260508043027 47 76 2.6 5.2 0.00 0.00 0.00 72 1013.9
20260508042507 47 113 0.9 2.6 0.00 0.00 0.00 71 1013.7
20260508042012 47 133 0.9 3.5 0.00 0.00 0.00 72 1013.6
20260508041530 47 131 0.0 3.5 0.00 0.00 0.00 71 1013.5
20260508041008 47 113 0.9 3.5 0.00 0.00 0.00 71 1013.4
20260508040512 47 122 0.9 6.1 0.00 0.00 0.00 71 1013.5
20260508040013 47 127 1.7 6.1 0.00 0.00 0.00 68 1013.6
20260508035505 47 103 1.7 5.2 0.00 0.00 0.00 69 1013.5
20260508035004 47 124 0.9 7.0 0.00 0.00 0.00 69 1013.5
20260508034509 47 114 1.7 7.0 0.00 0.00 0.00 69 1013.5
20260508034003 47 101 0.9 4.3 0.00 0.00 0.00 69 1013.5
20260508033510 47 65 0.9 7.8 0.00 0.00 0.00 67 1013.4
20260508033010 47 130 1.7 7.8 0.00 0.00 0.00 68 1013.5
20260508032504 46 111 3.5 7.8 0.00 0.00 0.00 67 1013.5
20260508032010 46 137 1.7 8.7 0.00 0.00 0.00 69 1013.6
20260508031512 46 68 3.5 8.7 0.00 0.00 0.00 69 1013.5
20260508031003 45 101 3.5 8.7 0.00 0.00 0.00 70 1013.6
20260508030505 45 74 1.7 3.5 0.00 0.00 0.00 71 1013.6
20260508030020 44 40 0.9 2.6 0.00 0.00 0.00 71 1013.5
20260508025508 44 40 0.9 2.6 0.00 0.00 0.00 70 1013.4
20260508025005 44 51 0.9 2.6 0.00 0.00 0.00 70 1013.4
20260508024514 44 70 0.0 2.6 0.00 0.00 0.00 69 1013.4
20260508024007 44 137 0.0 1.7 0.00 0.00 0.00 70 1013.4
20260508023508 44 137 0.0 0.0 0.00 0.00 0.00 69 1013.4
20260508023010 44 137 0.0 0.0 0.00 0.00 0.00 70 1013.5
20260508022506 44 137 0.0 0.0 0.00 0.00 0.00 69 1013.4
20260508022004 44 137 0.0 0.0 0.00 0.00 0.00 70 1013.5
20260508021515 44 137 0.0 0.0 0.00 0.00 0.00 70 1013.4
20260508021002 44 137 0.0 0.0 0.00 0.00 0.00 69 1013.3
20260508020505 44 137 0.0 0.0 0.00 0.00 0.00 70 1013.3
20260508020012 44 137 0.0 0.0 0.00 0.00 0.00 70 1013.3
20260508015502 44 137 0.0 0.0 0.00 0.00 0.00 69 1013.3
20260508015007 45 137 0.0 0.0 0.00 0.00 0.00 69 1013.3
20260508014517 45 137 0.0 0.9 0.00 0.00 0.00 69 1013.3
20260508014008 45 137 0.0 0.9 0.00 0.00 0.00 68 1013.2
20260508013502 45 137 0.0 0.9 0.00 0.00 0.00 67 1013.2
20260508013033 45 137 0.0 0.9 0.00 0.00 0.00 66 1013.2
20260508012508 46 137 0.0 0.0 0.00 0.00 0.00 65 1013.2
20260508012005 46 137 0.0 0.0 0.00 0.00 0.00 65 1013.2
20260508011516 46 137 0.0 0.0 0.00 0.00 0.00 64 1013.1
20260508011005 46 137 0.0 0.0 0.00 0.00 0.00 63 1013.0
20260508010509 47 137 0.0 0.0 0.00 0.00 0.00 63 1013.0
20260508010015 47 137 0.0 0.0 0.00 0.00 0.00 62 1013.0
20260508005505 48 137 0.0 0.9 0.00 0.00 0.00 62 1013.1
20260508005006 48 137 0.0 0.9 0.00 0.00 0.00 61 1013.0
20260508004527 48 137 0.0 0.9 0.00 0.00 0.00 61 1013.0
20260508004008 49 137 0.0 0.9 0.00 0.00 0.00 60 1012.9
20260508003511 49 137 0.0 1.7 0.00 0.00 0.00 59 1012.9
20260508003022 50 137 0.0 2.6 0.00 0.00 0.00 59 1012.9
20260508002504 50 137 0.0 2.6 0.00 0.00 0.00 57 1012.9
20260508002007 50 163 0.0 3.5 0.00 0.00 0.00 57 1012.8
20260508001521 51 163 0.0 3.5 0.00 0.00 0.00 57 1012.8
20260508001009 51 148 0.0 2.6 0.00 0.00 0.00 55 1012.7
20260508000504 51 148 0.9 4.3 0.00 0.00 0.00 57 1012.7
20260508000023 52 159 0.0 4.3 0.00 0.00 0.00 54 1012.6
20260507235507 52 131 0.0 3.5 0.00 0.00 0.00 57 1012.5
20260507235008 52 151 0.9 7.8 0.00 0.00 0.00 54 1012.4
20260507234512 53 141 0.9 7.8 0.00 0.00 0.00 54 1012.4
20260507234005 54 138 0.0 5.2 0.00 0.00 0.00 53 1012.3
20260507233504 54 140 0.0 7.8 0.00 0.00 0.00 52 1012.2
20260507233027 55 134 0.9 7.8 0.00 0.00 0.00 49 1012.2
20260507232510 55 157 1.7 7.8 0.00 0.00 0.00 51 1012.2
20260507232012 55 117 1.7 7.8 0.00 0.00 0.00 50 1012.2
20260507231521 55 84 0.9 7.8 0.00 0.00 0.00 50 1012.2
20260507231012 55 122 3.5 7.8 0.00 0.00 0.00 48 1012.3
20260507230510 56 126 0.9 7.0 0.00 0.00 0.00 49 1012.3
20260507230024 56 101 2.6 13.0 0.00 0.00 0.00 48 1012.3
20260507225507 56 124 2.6 13.9 0.00 0.00 0.00 46 1012.2
20260507225007 56 95 7.8 13.9 0.00 0.00 0.00 46 1012.2
20260507224531 56 95 7.8 13.0 0.00 0.00 0.00 43 1012.2
20260507224007 57 138 6.1 14.8 0.00 0.00 0.00 45 1012.3
20260507223504 57 147 5.2 14.8 0.00 0.00 0.00 45 1012.4
20260507223023 57 151 5.2 21.7 0.00 0.00 0.00 47 1012.3
20260507222505 56 100 6.1 21.7 0.00 0.00 0.00 46 1012.4
20260507222006 57 92 4.3 14.8 0.00 0.00 0.00 47 1012.3
20260507221520 57 123 5.2 17.4 0.00 0.00 0.00 47 1012.3
20260507221010 57 131 8.7 17.4 0.00 0.00 0.00 45 1012.3
20260507220510 57 110 7.8 17.4 0.00 0.00 0.00 48 1012.3
20260507220022 57 169 7.0 15.6 0.00 0.00 0.00 48 1012.2
20260507215506 56 158 5.2 12.2 0.00 0.00 0.00 49 1012.3
20260507215009 57 154 6.1 15.6 0.00 0.00 0.00 49 1012.2
20260507214509 57 107 7.0 15.6 0.00 0.00 0.00 48 1012.1
20260507214002 57 98 7.8 13.9 0.00 0.00 0.00 48 1012.0
20260507213503 57 131 3.5 11.3 0.00 0.00 0.00 52 1012.1
20260507213010 56 136 2.6 13.0 0.00 0.00 0.00 50 1012.0
20260507212501 56 74 7.8 13.9 0.00 0.00 0.00 47 1011.9
20260507212003 57 136 6.1 13.9 0.00 0.00 0.00 47 1011.9
20260507211504 58 134 6.1 13.0 0.00 0.00 0.00 46 1011.8
20260507211004 57 113 5.2 12.2 0.00 0.00 0.00 50 1011.8
20260507210502 57 119 5.2 14.8 0.00 0.00 0.00 53 1011.7
20260507210009 57 97 4.3 14.8 0.00 0.00 0.00 54 1011.6
20260507205503 56 115 5.2 14.8 0.00 0.00 0.00 53 1011.6
20260507205004 56 146 6.1 16.5 0.00 0.00 0.00 53 1011.7
20260507204504 56 161 7.8 16.5 0.00 0.00 0.00 51 1011.6
20260507204003 57 99 7.0 15.6 0.00 0.00 0.00 50 1011.6
20260507203505 59 169 5.2 14.8 0.00 0.00 0.00 49 1011.4
20260507203003 59 146 7.0 16.5 0.00 0.00 0.00 49 1011.3
20260507202503 59 130 7.0 16.5 0.00 0.00 0.00 48 1011.3
20260507202005 59 94 7.8 15.6 0.00 0.00 0.00 52 1011.5
20260507201512 58 129 4.3 13.9 0.00 0.00 0.00 52 1011.5
20260507201003 58 105 5.2 13.9 0.00 0.00 0.00 49 1011.5
20260507200504 59 143 5.2 14.8 0.00 0.00 0.00 50 1011.6
20260507200006 58 107 7.0 14.8 0.00 0.00 0.00 49 1011.5
20260507195502 57 112 2.6 12.2 0.00 0.00 0.00 52 1011.5
20260507195003 58 144 2.6 12.2 0.00 0.00 0.00 52 1011.6
20260507194504 59 146 4.3 13.0 0.00 0.00 0.00 48 1011.7
20260507194002 59 73 6.1 13.0 0.00 0.00 0.00 51 1011.8
20260507193502 58 63 4.3 14.8 0.00 0.00 0.00 48 1011.8
20260507193004 58 118 4.3 14.8 0.00 0.00 0.00 52 1011.9
20260507192504 58 128 6.1 14.8 0.00 0.00 0.00 51 1011.9
20260507192004 58 102 3.5 14.8 0.00 0.00 0.00 52 1011.9
20260507191503 59 153 4.3 12.2 0.00 0.00 0.00 50 1012.0
20260507191004 58 118 4.3 13.9 0.00 0.00 0.00 52 1012.0
20260507190503 58 105 6.1 13.9 0.00 0.00 0.00 50 1011.9
20260507190016 57 125 7.0 13.0 0.00 0.00 0.00 52 1012.0
20260507185502 57 111 7.0 13.0 0.00 0.00 0.00 50 1012.0
20260507185008 58 90 6.1 19.1 0.00 0.00 0.00 48 1011.9
20260507184514 58 123 6.1 19.1 0.00 0.00 0.00 49 1012.0
20260507184003 58 90 7.0 15.6 0.00 0.00 0.00 48 1011.9
20260507183502 58 161 1.7 11.3 0.00 0.00 0.00 58 1011.9
20260507183004 59 145 4.3 13.0 0.00 0.00 0.00 51 1012.0
20260507182504 59 74 8.7 13.0 0.00 0.00 0.00 48 1012.0
20260507182004 58 90 7.0 11.3 0.00 0.00 0.00 53 1012.0
20260507181510 57 123 1.7 12.2 0.00 0.00 0.00 54 1012.0
20260507181006 57 129 2.6 13.9 0.00 0.00 0.00 52 1012.0
20260507180509 58 82 6.1 15.6 0.00 0.00 0.00 50 1012.0
20260507180008 57 101 4.3 15.6 0.00 0.00 0.00 55 1012.0
20260507175503 57 132 3.5 13.0 0.00 0.00 0.00 52 1012.1
20260507175007 57 76 8.7 13.0 0.00 0.00 0.00 49 1012.0
20260507174503 58 107 5.2 13.0 0.00 0.00 0.00 49 1012.0
20260507174003 58 138 5.2 13.9 0.00 0.00 0.00 52 1012.1
20260507173507 58 117 5.2 13.9 0.00 0.00 0.00 57 1012.2
20260507173031 58 109 5.2 11.3 0.00 0.00 0.00 53 1012.1
20260507172503 58 139 4.3 12.2 0.00 0.00 0.00 55 1012.1
20260507172004 58 132 7.8 13.0 0.00 0.00 0.00 50 1012.2
20260507171503 58 52 7.8 13.0 0.00 0.00 0.00 48 1012.2
20260507171002 58 148 2.6 15.6 0.00 0.00 0.00 54 1012.3
20260507170504 58 83 9.6 15.6 0.00 0.00 0.00 49 1012.2
20260507170015 58 38 7.0 11.3 0.00 0.00 0.00 51 1012.3
20260507165505 58 94 4.3 14.8 0.00 0.00 0.00 52 1012.3
20260507165003 58 157 1.7 14.8 0.00 0.00 0.00 58 1012.4
20260507164512 57 107 5.2 16.5 0.00 0.00 0.00 51 1012.4
20260507164007 57 71 9.6 16.5 0.00 0.00 0.00 48 1012.3
20260507163506 57 128 4.3 15.6 0.00 0.00 0.00 53 1012.4
20260507163009 56 90 3.5 13.9 0.00 0.00 0.00 52 1012.3
20260507162503 56 132 7.8 13.9 0.00 0.00 0.00 48 1012.4
20260507162009 56 105 7.8 13.9 0.00 0.00 0.00 54 1012.4
20260507161523 57 112 7.8 16.5 0.00 0.00 0.00 46 1012.4
20260507161000 57 84 7.0 16.5 0.00 0.00 0.00 49 1012.3
20260507160502 56 114 4.3 12.2 0.00 0.00 0.00 59 1012.3
20260507160008 56 22 3.5 12.2 0.00 0.00 0.00 54 1012.3
20260507155506 56 139 4.3 12.2 0.00 0.00 0.00 54 1012.4
20260507155003 55 107 3.5 17.4 0.00 0.00 0.00 51 1012.3
20260507154527 55 69 7.8 17.4 0.00 0.00 0.00 52 1012.4
20260507154009 55 58 4.3 11.3 0.00 0.00 0.00 54 1012.4
20260507153504 55 61 4.3 12.2 0.00 0.00 0.00 52 1012.4
20260507153030 55 123 6.1 13.0 0.00 0.00 0.00 51 1012.4
20260507152507 55 107 2.6 13.0 0.00 0.00 0.00 58 1012.5
20260507152009 54 63 6.1 12.2 0.00 0.00 0.00 53 1012.4
20260507151512 54 148 2.6 10.4 0.00 0.00 0.00 54 1012.4
20260507151006 55 96 5.2 10.4 0.00 0.00 0.00 54 1012.4
20260507150510 55 105 6.1 13.0 0.00 0.00 0.00 59 1012.6
20260507150008 54 71 7.0 13.0 0.00 0.00 0.00 53 1012.6
20260507145508 54 141 6.1 14.8 0.00 0.00 0.00 56 1012.5
20260507145007 54 97 6.1 14.8 0.00 0.00 0.00 56 1012.7
20260507144510 54 113 7.0 13.0 0.00 0.00 0.00 56 1012.8
20260507144003 54 98 6.1 13.0 0.00 0.00 0.00 58 1012.7
20260507143505 54 86 4.3 11.3 0.00 0.00 0.00 60 1012.7
20260507143022 54 133 2.6 11.3 0.00 0.00 0.00 66 1012.7
20260507142507 53 96 6.1 14.8 0.00 0.00 0.00 61 1012.7
20260507142006 53 71 7.0 14.8 0.00 0.00 0.00 61 1012.7
20260507141521 53 76 7.0 14.8 0.00 0.00 0.00 62 1012.8
20260507141008 53 50 5.2 10.4 0.00 0.00 0.00 65 1012.9
20260507140504 53 118 6.1 10.4 0.00 0.00 0.00 62 1012.9
20260507140016 53 40 2.6 10.4 0.00 0.00 0.00 67 1013.0
20260507135509 52 89 4.3 10.4 0.00 0.00 0.00 68 1013.1
20260507135011 52 113 2.6 7.8 0.00 0.00 0.00 68 1013.2
20260507134515 51 110 3.5 7.8 0.00 0.00 0.00 67 1013.2
20260507134006 51 117 4.3 7.8 0.00 0.00 0.00 68 1013.2
20260507133510 51 127 1.7 8.7 0.00 0.00 0.00 72 1013.3
20260507133012 51 63 5.2 8.7 0.00 0.00 0.00 74 1013.3
20260507132503 51 138 2.6 7.0 0.00 0.00 0.00 74 1013.3
20260507132007 50 91 0.9 8.7 0.00 0.00 0.00 75 1013.3
20260507131519 49 119 5.2 8.7 0.00 0.00 0.00 73 1013.3
20260507131003 49 122 1.7 8.7 0.00 0.00 0.00 77 1013.2
20260507130505 48 127 3.5 8.7 0.00 0.00 0.00 76 1013.3
20260507130035 48 103 3.5 8.7 0.00 0.00 0.00 77 1013.2
20260507125510 48 48 5.2 8.7 0.00 0.00 0.00 79 1013.2
20260507125008 47 52 4.3 8.7 0.00 0.00 0.00 80 1013.2
20260507124501 46 64 2.6 8.7 0.00 0.00 0.00 81 1013.3
20260507124001 45 45 3.5 7.0 0.00 0.00 0.00 83 1013.3
20260507123501 45 122 3.5 7.8 0.00 0.00 0.00 83 1013.2
20260507123002 44 101 2.6 7.8 0.00 0.00 0.00 84 1013.2
20260507122502 43 100 3.5 7.0 0.00 0.00 0.00 87 1013.3
20260507122006 42 82 2.6 7.8 0.00 0.00 0.00 88 1013.2
20260507121516 42 30 4.3 7.8 0.00 0.00 0.00 89 1013.1
20260507121002 41 63 2.6 7.0 0.00 0.00 0.00 90 1013.1
20260507120504 41 57 1.7 5.2 0.00 0.00 0.00 90 1013.2
20260507120020 41 66 1.7 4.3 0.00 0.00 0.00 92 1013.2
20260507115503 40 71 1.7 4.3 0.00 0.00 0.00 93 1013.3
20260507115001 40 66 1.7 3.5 0.00 0.00 0.00 94 1013.4
20260507114503 40 13 0.0 2.6 0.00 0.00 0.00 94 1013.3
20260507114005 39 13 0.9 2.6 0.00 0.00 0.00 94 1013.2
20260507113503 39 13 0.0 1.7 0.00 0.00 0.00 94 1013.3
20260507113006 39 13 0.0 1.7 0.00 0.00 0.00 94 1013.2
20260507112502 39 13 0.0 1.7 0.00 0.00 0.00 94 1013.2
20260507112002 39 13 0.0 0.9 0.00 0.00 0.00 94 1013.1
20260507111503 38 13 0.0 1.7 0.00 0.00 0.00 94 1013.2
20260507111003 38 13 0.0 2.6 0.00 0.00 0.00 94 1013.2
20260507110506 38 13 0.9 2.6 0.00 0.00 0.00 94 1013.1
20260507110016 38 343 0.0 1.7 0.00 0.00 0.00 94 1013.0
20260507105502 38 343 0.0 2.6 0.00 0.00 0.00 94 1012.9
20260507105002 38 343 0.0 2.6 0.00 0.00 0.00 94 1012.9
20260507104518 38 343 0.0 2.6 0.00 0.00 0.00 94 1012.8
20260507104009 38 343 0.0 2.6 0.00 0.00 0.00 94 1012.8
20260507103501 38 342 0.0 2.6 0.00 0.00 0.00 94 1012.8
20260507103005 38 342 0.0 2.6 0.00 0.00 0.00 93 1012.8
20260507102503 38 342 0.0 1.7 0.00 0.00 0.00 93 1012.8
20260507102003 38 355 0.0 1.7 0.00 0.00 0.00 93 1012.7
20260507101507 38 355 0.0 2.6 0.00 0.00 0.00 93 1012.7
20260507101002 38 355 0.9 2.6 0.00 0.00 0.00 93 1012.8
20260507100505 38 355 0.0 2.6 0.00 0.00 0.00 93 1012.7
20260507100006 38 360 0.0 0.0 0.00 0.01 0.00 93 1012.7
20260507095506 38 360 0.0 0.0 0.00 0.01 0.00 93 1012.6
20260507095006 38 360 0.0 0.0 0.00 0.02 0.00 93 1012.6
20260507094516 38 360 0.0 0.0 0.00 0.02 0.00 93 1012.6
20260507094002 38 360 0.0 0.0 0.00 0.03 0.00 92 1012.6
20260507093507 38 360 0.0 0.0 0.00 0.04 0.00 92 1012.7
20260507093025 38 12 0.0 1.7 0.00 0.04 0.00 92 1012.7
20260507092503 38 12 0.0 2.6 0.00 0.05 0.00 92 1012.7
20260507092003 39 12 0.0 2.6 0.00 0.06 0.00 92 1012.7
20260507091503 39 9 0.0 2.6 0.00 0.07 0.00 92 1012.8
20260507091004 39 9 0.9 1.7 0.00 0.08 0.00 92 1012.8
20260507090503 39 9 0.0 1.7 0.00 0.09 0.00 92 1012.7
20260507090010 39 9 0.9 2.6 0.00 0.10 0.00 91 1012.8
20260507085503 39 9 0.0 2.6 0.00 0.11 0.00 91 1012.8
20260507085006 39 21 0.9 2.6 0.00 0.11 0.00 91 1012.7
20260507084510 39 22 0.9 2.6 0.00 0.12 0.00 91 1012.7
20260507084006 39 28 1.7 2.6 0.00 0.12 0.00 91 1012.7
20260507083507 39 14 0.9 2.6 0.00 0.12 0.00 91 1012.8
20260507083008 39 12 0.9 2.6 0.00 0.12 0.00 90 1012.8
20260507082504 39 14 0.0 1.7 0.00 0.12 0.00 90 1012.8
20260507082009 40 331 0.0 1.7 0.00 0.13 0.00 90 1012.8
20260507081523 40 299 0.0 1.7 0.00 0.14 0.00 90 1012.8
20260507081003 40 298 0.0 1.7 0.00 0.15 0.00 89 1012.9
20260507080507 40 298 0.0 1.7 0.00 0.16 0.00 89 1012.9
20260507080027 40 291 0.0 0.9 0.00 0.18 0.00 88 1012.9
20260507075503 40 291 0.0 0.9 0.00 0.20 0.00 88 1012.9
20260507075002 40 255 0.0 1.7 0.00 0.21 0.00 88 1012.8
20260507074511 40 243 0.0 1.7 0.00 0.24 0.00 87 1012.8
20260507074007 40 241 0.0 1.7 0.00 0.25 0.00 87 1012.9
20260507073502 40 239 0.0 0.9 0.00 0.26 0.00 87 1012.9
20260507073018 40 239 0.0 0.9 0.00 0.28 0.00 86 1013.0
20260507072507 41 239 0.0 1.7 0.00 0.29 0.00 86 1012.9
20260507072008 41 239 0.0 1.7 0.00 0.30 0.00 85 1012.9
20260507071534 41 238 0.0 1.7 0.00 0.31 0.00 85 1012.9
20260507071006 41 238 0.0 1.7 0.00 0.32 0.00 85 1012.9
20260507070509 41 235 0.0 0.9 0.00 0.33 0.00 85 1012.9
20260507070027 41 234 0.0 0.9 0.00 0.34 0.00 85 1012.9
20260507065505 41 234 0.0 1.7 0.00 0.35 0.00 85 1013.0
20260507065009 41 234 0.0 1.7 0.00 0.36 0.00 85 1013.0
20260507064527 41 234 0.0 1.7 0.00 0.37 0.00 85 1013.0
20260507064005 41 228 0.0 1.7 0.00 0.38 0.00 85 1013.1
20260507063504 41 179 0.0 1.7 0.00 0.39 0.00 85 1013.1
20260507063009 41 171 0.0 1.7 0.00 0.40 0.00 85 1013.1
20260507062511 41 171 0.0 0.0 0.00 0.41 0.00 84 1013.2
20260507062007 41 171 0.0 0.0 0.00 0.42 0.00 84 1013.3
20260507061518 42 171 0.0 1.7 0.00 0.42 0.00 84 1013.4
20260507061006 42 171 0.0 1.7 0.00 0.44 0.00 84 1013.3
20260507060508 42 171 0.0 1.7 0.00 0.46 0.00 84 1013.4